Theta_e
320 320 320 320 320 320 320 321 321 322 322 323 323 324 325 326 327 327 329 328 328 328 327 327 327 327 328 328 326 326 327 328 329 330 330 330 330 330 330 330 329 329 328 327 326 326 327 327 329 329 328 328 329 330 330 330 329 328 328 328 329 329 329 328 328 329 328 328 328 327 328 327 327 327 324 325 323 316 314 317 316 313 311 311 311
320 320 320 320 320 319 319 319 320 320 321 321 321 322 323 324 324 325 326 327 328 328 329 328 328 328 329 330 329 328 327 327 329 330 330 329 329 330 330 329 329 329 329 328 328 327 328 329 329 329 328 328 330 331 330 330 330 328 328 328 329 328 328 328 328 329 328 328 328 328 327 327 327 326 324 325 322 316 318 321 320 315 311 310 310
320 320 319 319 319 318 318 319 319 319 319 319 320 320 320 321 322 322 323 324 325 327 328 329 329 329 328 327 327 328 329 328 328 329 330 329 329 330 329 329 330 331 330 329 329 330 330 329 329 329 328 328 330 330 329 330 329 328 328 328 328 329 329 328 328 328 328 328 327 327 327 326 327 326 324 324 322 317 317 320 320 316 311 309 310
319 319 319 318 318 317 317 317 318 318 318 317 318 319 319 320 320 321 321 322 323 324 326 328 328 329 329 327 326 328 329 329 328 329 329 330 330 329 328 329 330 331 329 329 330 331 330 328 328 328 327 328 330 329 328 329 328 327 328 329 328 329 330 329 328 328 327 328 327 327 327 326 326 326 324 325 324 319 315 316 317 313 310 311 310
318 318 318 318 317 317 316 316 317 317 317 316 317 317 318 319 320 320 321 320 321 323 325 327 328 329 329 328 329 329 329 329 329 329 329 330 330 329 329 329 330 330 330 329 330 331 330 328 327 326 326 328 330 329 328 329 329 328 328 329 329 330 330 328 328 327 326 327 327 326 326 326 326 326 324 325 324 319 314 316 316 311 310 313 312
317 317 317 317 316 316 316 316 316 315 315 315 316 316 317 318 319 320 321 321 321 323 325 326 327 328 329 329 329 330 329 329 329 329 330 329 329 329 328 328 329 329 329 329 330 330 330 329 328 327 326 326 328 330 330 330 330 329 328 329 329 328 328 328 327 326 326 328 328 326 326 326 325 325 324 324 322 317 314 317 316 312 311 313 311
316 316 316 316 315 316 315 315 315 315 314 315 315 315 316 317 319 319 320 320 321 322 324 326 327 327 328 329 329 329 329 329 329 329 330 329 329 328 326 325 326 326 327 328 328 329 329 329 329 328 327 326 327 329 330 329 328 327 327 327 327 327 327 327 326 325 326 327 327 326 326 326 325 324 323 323 320 316 314 315 315 313 311 311 310
315 315 315 315 315 315 315 314 314 314 314 314 315 315 316 317 318 318 319 319 320 320 322 324 326 326 327 328 328 329 328 329 329 329 329 330 330 328 326 325 325 324 325 326 327 328 329 329 329 328 326 325 325 326 328 328 326 325 326 326 327 328 327 326 325 325 325 326 325 325 325 323 322 322 322 321 319 317 314 314 315 313 311 310 309
314 314 315 314 314 314 314 313 313 313 313 314 315 315 315 316 317 317 318 318 319 320 321 322 324 325 326 326 327 328 328 328 329 329 329 329 329 329 328 328 325 324 324 325 326 328 328 328 328 327 324 322 323 326 327 328 326 325 326 327 327 327 327 326 326 324 324 325 324 323 322 320 318 318 320 319 318 317 315 314 314 312 311 310 310
313 314 314 313 313 313 313 313 312 312 313 312 313 314 315 315 316 316 317 317 318 319 320 321 322 323 324 325 326 327 328 328 329 328 329 329 329 328 328 328 325 323 323 324 326 328 328 328 328 327 324 322 324 327 328 328 326 324 325 327 327 326 326 327 326 324 324 324 322 320 320 318 316 317 318 318 318 317 315 314 314 312 311 312 311
312 312 313 312 312 313 312 312 312 311 311 311 312 313 313 313 314 315 315 316 316 318 319 320 321 322 323 323 324 325 326 327 328 328 329 329 329 328 328 327 325 324 323 324 327 328 328 328 327 327 326 325 326 329 328 327 326 324 325 327 328 327 326 327 326 325 324 323 320 320 320 318 317 317 317 317 317 316 314 314 314 313 312 313 313
311 311 311 311 312 312 311 311 311 311 310 310 311 311 312 312 313 314 314 314 315 316 316 318 319 320 321 322 322 323 324 325 326 327 328 328 329 329 328 327 326 324 323 323 325 327 329 327 326 326 327 327 328 329 328 327 326 326 327 327 327 327 326 326 327 326 325 323 321 321 321 319 319 318 317 317 316 315 315 314 313 314 313 313 314
310 310 310 310 311 311 310 310 310 310 310 309 310 311 311 312 312 312 312 312 313 314 314 315 316 316 318 319 321 322 323 324 325 326 327 327 328 328 328 328 326 324 324 324 324 325 328 328 327 327 328 327 328 329 328 327 328 328 329 327 326 327 327 326 327 326 325 323 322 321 322 321 321 320 318 318 317 316 316 315 315 315 315 314 316
309 309 309 309 309 310 309 309 309 309 309 308 308 309 309 310 311 311 311 311 312 312 313 313 314 314 315 316 318 319 320 322 324 324 325 326 326 327 328 328 327 326 326 326 325 326 327 328 327 328 328 327 327 328 328 327 326 327 328 327 325 326 326 326 326 326 325 324 323 323 322 322 322 321 320 320 319 317 317 317 316 316 316 316 317
308 308 308 308 308 308 308 308 308 308 308 307 307 307 307 308 309 309 310 310 311 311 311 311 312 312 313 314 315 317 318 319 321 323 323 324 325 326 327 327 327 327 327 327 326 326 327 327 327 328 327 326 327 328 327 327 326 326 327 326 324 324 325 326 326 326 326 324 323 323 323 322 322 322 321 321 320 319 319 318 317 316 316 317 318
308 307 307 307 307 307 307 307 307 307 307 307 306 306 306 306 307 307 308 309 309 309 309 309 310 311 312 313 313 315 316 317 319 320 321 322 323 325 325 325 326 327 328 327 326 326 326 326 325 324 325 326 326 326 325 326 327 327 326 326 325 324 325 326 326 326 326 325 324 323 323 323 323 322 322 321 320 320 320 319 318 317 317 317 318
307 307 306 306 306 306 306 306 306 306 306 306 306 306 305 305 305 306 306 306 306 306 307 307 308 309 309 310 311 312 314 316 317 318 319 320 322 323 324 325 325 326 327 326 325 325 326 327 324 322 323 325 324 323 324 325 326 325 325 326 325 325 326 326 326 326 326 325 325 324 323 322 322 322 322 321 320 320 320 320 319 318 318 318 319
307 306 306 306 305 305 304 304 304 305 305 305 305 305 305 304 304 305 305 305 305 305 305 305 306 306 306 307 308 310 311 314 316 316 317 318 319 321 323 324 324 324 326 326 324 324 326 327 326 324 324 324 323 322 324 325 324 324 325 326 326 326 326 326 326 326 326 326 325 324 323 322 322 322 321 320 320 320 320 320 319 319 319 319 320
306 305 305 305 304 304 304 304 303 303 303 302 303 303 304 304 304 304 304 304 304 304 304 304 304 304 304 305 306 307 309 311 313 315 316 316 317 319 321 322 323 323 324 325 324 323 325 326 326 325 323 323 322 321 322 323 324 324 324 325 325 325 324 323 323 325 326 325 323 323 322 321 321 320 320 321 322 321 321 320 320 320 319 319 318
305 304 304 304 303 303 303 303 303 302 302 302 302 302 302 303 303 303 303 303 302 302 302 302 302 303 303 304 304 305 306 308 310 312 315 316 317 318 318 320 321 322 323 323 323 323 323 323 324 324 322 322 322 321 321 323 324 324 324 324 324 324 323 321 320 322 324 322 320 321 322 321 321 321 321 322 321 320 320 320 319 318 317 317 317
304 304 304 303 303 302 302 302 302 302 302 302 300 300 301 302 302 302 302 302 302 301 301 301 301 302 302 303 303 304 305 306 307 309 312 314 316 316 317 317 317 318 320 320 321 321 321 320 321 323 324 323 322 321 322 323 324 323 322 322 322 321 320 319 318 320 322 320 318 319 320 320 321 321 322 322 320 318 318 319 318 316 315 314 315
304 303 303 303 302 302 301 301 302 302 302 301 299 298 299 299 300 301 301 300 300 301 301 300 300 300 301 301 302 303 303 304 306 307 308 310 313 315 315 316 316 316 317 317 318 318 319 319 321 323 323 322 322 321 322 323 322 321 321 320 319 317 317 317 318 319 319 318 316 317 318 318 318 318 318 318 316 315 315 316 316 315 313 313 313
303 303 303 303 302 302 301 301 301 301 301 300 299 298 298 297 298 298 299 299 298 298 299 300 300 299 299 300 301 302 302 303 304 305 306 307 309 311 312 313 314 315 316 317 316 316 317 318 320 320 320 321 320 320 321 322 321 320 319 319 317 316 315 316 317 316 316 316 316 316 316 315 314 314 313 313 313 312 311 312 312 311 310 309 310
303 303 303 302 302 302 302 302 301 301 301 300 300 299 298 298 297 297 297 297 297 296 297 298 299 299 298 299 299 300 301 302 303 304 304 305 306 307 308 310 311 312 314 315 314 314 316 316 316 317 318 319 319 320 320 320 319 318 318 317 316 315 316 316 315 314 314 314 314 314 313 312 312 312 311 310 310 308 306 306 306 306 304 304 305
303 302 302 302 302 302 302 302 301 301 301 300 300 299 299 298 298 297 297 297 297 296 296 296 297 297 297 298 299 299 300 301 301 302 303 304 304 304 305 306 308 309 310 311 311 312 313 313 313 315 317 318 318 318 318 318 318 317 317 316 316 315 315 315 314 313 313 313 312 311 310 309 309 308 306 306 305 303 303 304 303 302 300 300 302
302 302 302 302 302 302 302 302 301 301 300 300 300 299 299 298 298 298 298 297 297 297 296 296 296 296 296 297 298 299 299 300 300 301 301 302 303 303 303 304 305 305 307 307 307 308 309 310 311 312 314 316 317 317 317 316 316 316 315 315 315 314 314 313 313 312 311 310 308 307 306 305 304 303 303 302 302 301 302 302 300 299 298 299 300
302 302 302 302 302 302 302 302 301 301 300 300 300 299 299 298 298 298 298 297 297 297 296 296 295 295 295 296 297 298 299 299 300 300 300 300 301 302 302 303 303 303 304 304 305 305 306 307 309 309 310 312 314 315 315 313 312 313 312 312 312 311 310 310 310 309 308 306 305 304 303 302 301 301 300 301 301 300 300 300 299 299 299 299 300
301 301 301 301 301 301 301 301 301 301 301 300 300 300 299 299 298 298 298 298 297 297 296 296 295 295 295 295 296 297 298 298 299 299 300 300 300 300 301 301 302 302 302 302 303 303 303 304 306 306 306 307 309 310 309 307 307 307 307 307 307 306 306 306 306 305 304 304 303 302 301 300 300 299 299 300 301 300 300 300 299 299 299 299 300
301 300 300 300 301 301 301 301 301 301 301 301 300 300 300 299 298 298 298 298 298 297 296 296 295 295 295 295 295 296 297 298 298 299 299 299 300 300 299 299 300 300 301 301 301 302 303 303 303 304 304 304 304 304 304 303 303 303 303 303 303 303 303 303 303 302 302 302 302 301 300 300 299 298 298 299 299 300 300 300 299 299 300 301 301
300 300 299 300 300 300 300 300 300 300 301 301 300 300 300 299 299 298 298 298 298 297 296 295 295 295 295 295 295 295 296 297 298 298 298 299 299 300 300 299 299 299 300 300 301 301 301 302 302 302 302 302 302 302 302 302 301 301 301 301 301 301 301 301 301 301 301 301 301 301 301 300 299 299 299 299 299 299 299 299 299 300 301 302 302
300 300 300 299 299 299 299 300 300 300 300 300 300 300 300 299 299 298 298 298 298 297 297 295 295 295 295 295 295 295 295 296 297 297 297 297 298 298 299 299 299 299 299 300 300 300 300 300 300 300 300 300 300 300 300 300 300 300 300 300 300 299 300 299 299 299 299 300 300 300 299 299 299 299 299 298 298 298 298 299 299 301 302 301 301
300 300 300 299 299 299 299 299 299 299 299 299 300 300 300 299 299 298 298 297 298 298 297 296 295 295 295 295 295 295 295 296 296 297 297 297 297 297 297 298 298 299 299 299 299 299 299 299 298 298 298 297 297 298 298 298 298 298 298 298 298 298 297 297 297 297 297 298 297 297 297 297 297 297 297 297 297 298 299 300 300 301 301 301 301
299 299 300 300 299 299 299 299 299 299 299 299 299 299 299 299 299 299 298 297 298 298 297 297 296 295 295 295 295 295 295 295 296 296 297 297 297 296 297 297 297 297 298 298 298 298 298 298 298 298 298 297 297 297 297 296 296 296 296 296 296 296 296 296 296 296 296 296 296 296 297 297 297 297 298 298 298 299 300 300 300 300 300 300 300
300 299 299 299 299 299 299 298 299 299 299 298 299 299 299 299 299 298 298 297 297 298 297 297 296 295 295 295 295 296 295 295 296 296 296 297 297 297 297 296 296 296 296 296 296 297 297 298 298 298 298 297 297 297 297 296 296 296 296 296 296 296 296 296 296 296 296 296 296 297 297 297 298 298 298 299 299 299 299 299 299 299 299 299 299
299 299 299 299 299 299 299 298 298 298 298 298 299 299 299 299 298 298 298 297 297 297 297 297 296 295 295 295 295 296 295 295 295 296 297 297 297 297 297 296 296 296 296 296 296 297 297 297 297 297 297 296 297 297 297 297 296 296 296 296 296 296 296 296 297 297 296 297 297 297 297 297 297 298 298 298 299 299 299 299 299 299 299 298 298
298 298 299 300 299 299 299 298 298 298 298 299 298 298 299 298 298 298 298 297 297 297 297 297 296 295 295 295 295 296 295 295 295 295 296 296 297 297 297 297 297 296 296 296 297 297 296 296 296 296 296 296 296 296 296 296 296 296 296 296 296 296 296 296 296 296 296 296 297 297 297 297 297 297 297 298 298 298 299 298 298 298 298 298 298
298 297 298 299 299 299 299 298 298 298 298 298 298 298 298 298 298 298 298 297 297 297 297 297 296 296 295 295 295 295 295 295 295 295 295 295 296 296 296 297 297 297 296 296 296 296 296 296 296 296 296 296 296 296 296 296 296 296 296 296 296 296 296 296 296 296 296 296 296 296 296 296 296 297 297 297 297 297 298 298 298 298 298 297 297
298 297 297 298 299 299 299 299 298 298 298 298 298 298 298 298 298 298 298 297 297 297 297 297 297 296 295 295 295 295 295 295 295 294 294 294 295 296 296 296 296 296 296 296 296 296 296 296 296 296 296 296 296 296 295 295 295 295 295 296 295 295 295 295 295 295 295 295 295 296 296 295 295 296 296 295 295 295 295 295 296 296 296 296 296
299 298 297 298 298 298 299 299 298 298 298 298 298 298 298 298 298 298 297 297 297 297 297 297 297 296 295 295 295 295 295 295 295 294 294 294 294 295 295 295 295 296 296 296 296 296 296 296 296 296 296 295 295 295 295 295 295 295 295 295 294 294 294 294 294 294 295 295 295 295 295 295 295 295 295 295 295 294 294 294 294 294 295 294 294
300 299 298 298 298 298 298 298 298 298 298 298 298 298 298 298 298 298 297 297 297 297 297 297 296 296 296 295 295 295 295 295 294 294 294 294 293 294 294 295 295 295 295 295 295 296 296 296 296 295 295 295 295 295 295 295 294 294 294 294 294 294 294 294 294 294 294 294 294 294 294 294 294 294 294 294 294 294 294 294 294 294 294 293 294
299 299 298 298 298 298 297 298 298 298 298 298 298 298 298 298 298 298 297 297 297 297 297 297 296 296 296 296 296 295 295 295 294 294 294 294 293 293 294 295 295 295 295 295 295 295 295 295 295 295 295 295 295 294 294 294 294 294 294 294 294 294 294 294 294 294 294 294 294 294 294 294 294 294 294 293 293 293 294 293 293 293 293 293 293
299 299 298 298 298 298 298 298 298 298 298 298 298 298 298 298 298 298 298 297 297 297 297 297 296 296 296 296 296 296 295 295 295 294 294 294 294 293 293 294 294 294 294 294 294 294 294 294 294 294 294 294 294 294 294 294 294 294 294 294 294 294 293 294 294 294 294 294 294 294 294 293 293 293 293 293 293 294 294 294 293 293 293 293 293
298 298 298 298 297 298 298 297 297 298 298 298 298 298 297 298 298 298 298 298 297 297 297 297 297 296 296 296 296 296 296 295 295 295 294 294 294 294 293 293 293 294 294 294 294 294 293 293 294 294 294 294 294 294 294 294 294 294 294 293 293 293 293 293 293 293 292 292 293 293 293 293 293 293 293 293 293 293 293 293 293 293 293 292 293
298 297 298 297 297 298 298 297 297 298 298 297 297 298 297 297 298 298 297 297 298 297 298 298 297 297 297 297 296 296 296 296 295 295 295 294 294 294 293 293 293 293 293 294 294 293 293 293 293 293 293 293 293 294 294 294 293 293 293 293 293 293 293 293 293 292 292 292 292 292 292 292 293 292 292 292 292 292 293 293 293 293 293 293 292
297 297 297 297 297 297 297 297 297 297 298 297 297 297 297 297 297 297 297 297 297 297 298 298 298 298 297 297 297 297 296 296 296 295 295 295 295 294 293 293 293 293 292 293 294 294 293 293 293 293 293 293 293 293 293 293 293 293 293 293 293 293 293 293 293 293 292 292 292 292 292 292 292 292 292 291 291 291 292 292 292 292 293 292 292
297 297 297 297 297 297 297 297 296 296 296 296 296 296 296 296 296 296 296 296 297 297 297 298 298 298 298 297 297 297 297 296 296 296 295 295 295 295 293 293 293 293 293 293 293 293 293 293 294 293 293 293 293 292 292 292 292 292 292 293 293 293 292 292 292 292 292 292 292 292 292 291 291 290 291 291 290 290 291 292 292 291 292 292 292
298 298 297 297 297 297 297 297 296 296 296 296 296 296 295 295 296 296 296 296 296 297 297 297 297 298 298 298 297 297 297 297 296 296 296 295 295 295 294 293 293 293 293 293 292 292 292 293 294 294 294 293 293 293 292 292 291 292 292 291 291 291 291 291 291 291 291 292 292 291 291 291 290 290 289 289 289 289 289 290 290 290 290 291 291
298 298 297 297 297 297 297 297 297 297 296 296 296 296 295 295 296 296 295 296 296 296 296 296 297 297 297 297 297 297 297 297 296 296 296 295 295 295 294 293 292 293 293 293 292 292 292 292 293 293 293 293 293 293 292 292 291 291 290 289 289 290 290 290 290 290 291 291 291 290 290 290 289 289 288 288 288 289 289 289 289 289 289 290 291
297 297 298 297 297 297 297 297 297 297 296 296 296 296 296 295 295 295 295 295 295 296 296 296 296 296 296 296 297 297 297 297 296 296 296 295 295 295 295 294 293 292 292 292 292 292 292 292 292 292 292 292 292 292 292 291 290 289 289 288 289 290 290 290 290 290 290 290 290 289 289 288 288 288 287 287 287 288 288 288 289 289 288 289 290
297 297 298 297 296 296 297 297 296 296 296 296 296 296 296 295 295 295 294 294 295 296 296 295 295 296 296 296 296 297 297 297 296 296 296 296 295 295 295 294 294 293 292 292 292 292 292 292 292 292 291 291 291 290 290 289 289 289 289 290 290 290 290 290 290 290 289 289 289 288 288 288 287 287 287 287 287 287 287 287 287 288 288 288 289
297 297 298 297 296 296 297 296 295 295 296 296 295 296 296 295 295 295 294 294 295 295 295 295 295 295 295 295 296 296 296 296 296 296 296 296 295 295 295 295 294 293 293 293 293 292 292 292 292 292 291 290 290 289 290 290 290 290 290 290 290 290 289 289 289 289 288 287 287 287 287 287 287 286 286 286 286 286 286 286 286 287 288 288 289
Wind_Speed
18 18 18 18 19 18 17 16 14 13 13 13 13 13 13 13 13 14 15 15 15 15 15 16 17 17 17 18 19 20 18 18 19 20 20 20 20 22 24 24 24 23 23 23 23 23 24 25 26 27 26 26 26 26 26 25 23 23 24 22 22 23 22 20 20 20 20 21 21 21 22 22 20 21 23 20 17 18 20 18 16 19 20 16 13
16 17 18 18 18 18 18 17 16 15 15 14 15 14 13 13 13 13 14 15 16 16 16 16 15 16 16 17 18 18 17 16 17 18 19 20 21 22 24 25 23 22 23 23 22 23 24 25 25 24 24 25 26 25 25 25 24 25 25 23 23 23 22 21 22 22 21 23 23 23 24 24 22 23 24 22 20 22 23 20 18 19 19 15 12
16 17 18 18 18 18 18 18 20 20 19 17 17 17 15 14 13 13 14 14 15 15 16 17 16 17 17 17 19 19 18 16 15 16 18 19 21 23 23 22 20 20 21 22 22 23 24 24 24 23 24 26 26 24 24 24 25 25 26 25 24 23 21 22 22 21 22 24 24 24 24 24 22 23 25 22 20 25 26 22 21 20 18 15 12
16 16 17 18 20 21 20 19 20 22 22 20 19 19 19 18 16 15 14 14 14 14 14 16 18 18 17 16 18 19 17 15 15 16 17 18 20 22 20 19 20 20 20 20 22 23 24 25 24 23 23 24 25 25 25 25 26 26 26 25 24 23 23 25 24 21 21 23 25 25 24 24 22 23 26 22 19 24 25 21 19 19 17 14 11
17 15 15 17 20 22 23 21 20 20 22 22 21 21 21 20 18 18 17 15 15 13 12 13 16 19 18 15 15 15 15 17 17 17 18 18 18 19 17 17 19 20 19 20 20 22 24 24 23 22 23 24 25 26 27 27 27 26 24 23 23 22 21 23 23 21 21 23 24 24 24 24 23 24 26 22 18 22 23 17 14 16 16 13 10
16 16 16 17 19 21 23 22 21 23 23 22 22 21 21 20 19 19 18 16 14 12 11 11 12 16 18 17 16 14 14 18 19 17 17 18 17 17 16 16 17 17 19 20 20 21 23 23 23 23 24 25 26 27 28 27 25 24 24 25 26 23 19 19 19 19 22 24 23 25 25 25 25 24 25 21 17 21 24 19 14 15 17 16 14
17 17 18 19 20 21 22 22 22 23 23 22 22 22 22 21 20 20 19 17 15 13 12 12 12 13 14 15 16 15 13 17 20 18 16 16 16 15 15 17 17 17 18 20 21 22 23 23 24 24 24 25 26 27 27 25 23 22 24 25 25 23 21 21 20 20 22 25 24 26 27 26 24 23 23 22 17 17 23 23 18 17 19 20 18
17 18 19 20 21 21 22 22 22 22 22 23 23 22 23 23 22 21 20 19 18 15 15 15 15 14 13 13 14 13 11 13 16 17 16 16 14 14 15 16 16 17 18 20 21 22 23 23 23 23 23 24 25 27 27 25 24 24 24 23 22 23 22 21 21 20 21 24 24 25 26 25 23 22 23 26 22 17 21 24 21 20 22 21 19
18 17 18 20 21 21 21 22 23 23 23 24 25 24 25 25 23 21 20 20 19 18 17 17 18 17 16 15 14 13 10 10 12 14 15 15 14 16 16 16 16 17 19 21 22 22 23 23 23 23 24 24 26 27 27 26 26 25 24 24 22 21 21 22 23 22 22 24 25 25 26 25 23 23 25 27 25 20 21 24 22 21 22 20 18
18 18 18 20 20 20 21 22 23 24 24 24 25 26 26 26 25 23 20 19 19 19 19 18 18 19 18 18 17 16 13 12 13 14 15 15 15 16 16 16 17 18 18 21 22 22 23 23 22 23 24 24 24 25 26 26 26 24 24 24 22 21 21 24 25 25 24 26 26 26 26 25 24 25 25 25 24 21 23 25 23 21 22 21 19
17 19 19 19 20 20 21 21 23 24 24 24 24 26 27 27 26 24 23 21 19 18 18 18 18 18 18 18 18 18 16 14 14 15 17 18 16 15 16 18 19 19 19 21 22 23 24 23 22 24 25 24 23 24 25 25 25 24 23 23 21 21 22 25 27 27 25 25 27 26 25 25 26 26 24 23 24 23 23 26 24 23 23 22 20
18 19 19 19 20 20 20 21 22 24 24 24 24 26 27 28 27 27 27 26 24 21 19 18 18 18 17 17 17 18 19 18 17 16 17 19 18 18 18 18 20 20 19 20 21 22 23 23 23 24 25 25 24 25 24 23 24 24 22 22 21 20 23 26 29 31 27 25 28 28 26 25 27 27 24 22 24 24 22 24 24 23 25 24 22
19 18 19 20 20 20 20 21 22 23 24 24 25 26 27 28 30 30 30 30 28 26 24 22 21 20 18 17 17 17 19 20 20 18 17 18 18 20 20 18 19 19 18 19 21 22 22 22 22 23 23 24 25 23 22 21 22 22 22 22 22 21 23 28 31 32 31 28 29 31 30 27 26 29 27 23 24 25 23 23 24 22 23 25 24
19 19 20 21 20 20 21 21 22 23 23 25 26 27 28 29 31 31 31 31 31 31 31 29 27 26 24 22 19 18 18 19 19 20 20 20 19 19 20 18 18 19 20 20 21 22 22 22 23 22 20 21 23 22 21 21 22 22 22 23 22 21 23 29 31 32 33 32 30 30 32 30 26 28 30 28 26 26 23 23 25 24 21 21 20
19 20 21 21 21 21 21 22 23 23 24 25 26 27 28 28 29 30 30 30 31 32 33 33 32 31 29 27 25 22 20 19 18 19 20 22 22 21 21 20 18 17 18 18 19 20 19 20 21 20 17 18 21 21 21 22 23 24 25 24 24 24 24 27 31 32 33 34 30 27 29 31 29 28 31 30 27 26 23 21 25 26 23 20 17
19 20 21 22 22 22 22 22 23 24 24 25 26 26 27 26 27 28 28 28 28 29 31 32 32 32 30 30 29 27 25 23 20 19 19 20 21 22 24 23 19 16 16 18 18 18 18 18 19 18 17 17 18 18 19 22 23 23 24 24 25 26 26 26 28 30 32 33 30 28 29 31 29 27 28 28 27 26 23 21 24 26 24 20 17
18 19 20 21 22 23 23 23 23 24 25 25 26 27 26 26 27 27 27 27 27 27 29 30 31 32 32 32 32 30 28 26 24 23 20 18 17 17 19 21 18 16 17 19 18 15 16 17 18 19 19 17 15 15 17 20 19 18 20 22 24 25 27 28 28 28 29 30 29 28 30 30 27 26 26 27 29 28 26 25 26 26 25 22 18
18 18 20 21 21 22 24 24 24 24 24 24 23 24 25 27 28 26 25 26 26 25 25 27 29 32 33 34 34 33 30 27 25 24 22 18 16 14 13 13 14 14 17 18 16 13 13 15 16 17 17 15 13 12 13 16 16 15 16 20 22 24 26 28 29 28 27 28 28 29 31 30 28 26 27 29 30 29 29 29 28 26 25 23 19
17 18 19 20 21 22 23 24 26 26 26 26 25 24 24 26 26 26 25 25 26 26 25 25 27 30 32 33 34 34 33 31 27 24 21 18 16 13 8 5 7 10 11 12 11 10 11 13 14 14 13 12 11 9 9 12 15 15 16 17 19 23 24 22 24 26 26 25 25 27 28 29 27 27 29 31 31 30 30 31 28 24 22 20 19
17 18 18 19 21 22 22 23 25 26 26 27 27 25 25 25 25 25 26 25 26 27 26 25 26 28 29 31 32 33 34 33 30 26 21 17 15 13 8 5 4 2 1 3 4 4 6 8 10 10 11 11 10 8 8 11 14 15 16 15 15 18 20 19 19 22 25 23 23 25 27 28 29 30 33 32 28 25 26 27 25 23 20 19 20
16 17 18 19 20 22 22 22 23 24 24 25 26 26 23 23 24 25 25 25 25 27 29 29 27 27 29 30 29 30 32 33 32 29 24 19 14 11 10 9 8 7 5 3 2 1 3 6 9 11 12 11 9 7 8 10 12 14 15 13 12 16 19 18 18 20 22 21 21 24 26 28 30 32 33 31 26 22 23 24 24 22 19 19 20
16 16 17 18 19 21 24 24 24 24 23 23 29 32 29 25 24 24 24 25 25 25 27 29 28 27 30 31 29 27 28 30 31 31 29 24 17 12 10 10 9 8 7 6 5 3 3 6 10 11 12 11 9 7 8 10 12 14 12 9 10 15 17 17 17 19 20 19 17 18 21 23 26 26 26 26 23 19 17 19 18 15 12 12 14
16 16 17 18 18 19 22 24 25 25 23 23 28 35 35 32 31 29 27 28 29 28 26 26 27 27 30 33 32 28 26 26 28 29 30 29 25 19 15 12 10 9 8 6 4 1 1 4 7 9 10 10 9 8 9 11 13 14 11 8 10 14 16 17 18 19 19 20 19 19 18 17 17 16 16 17 17 14 13 13 13 10 8 8 9
16 16 17 18 18 18 18 19 21 23 23 22 25 32 35 36 35 34 32 32 34 34 31 27 26 27 29 31 34 32 28 24 24 25 27 28 28 25 21 16 12 9 8 6 6 5 3 3 6 10 11 11 11 11 12 13 13 13 12 11 14 18 20 20 20 19 19 19 18 18 16 13 11 11 13 14 14 12 10 10 9 9 8 7 8
16 16 16 16 17 17 16 16 18 21 22 21 22 27 33 35 35 35 35 34 35 38 37 32 28 28 28 29 32 33 31 27 23 22 22 24 27 27 25 21 16 12 10 10 10 8 7 7 8 10 12 13 14 14 14 13 13 14 16 17 18 20 21 21 20 20 19 17 16 16 15 14 12 12 12 13 13 13 11 10 10 9 8 8 9
16 16 16 15 16 17 15 15 19 21 22 22 22 25 29 33 34 35 35 34 35 37 39 36 31 29 29 29 29 31 32 31 29 25 22 21 21 23 23 24 22 19 16 14 12 11 12 10 9 10 12 13 14 14 14 14 14 16 17 19 21 22 22 21 20 19 18 18 17 17 16 15 14 13 13 12 13 12 10 10 10 11 10 9 8
14 15 15 15 16 17 16 17 19 21 22 23 24 25 28 31 33 34 34 35 35 36 39 39 34 30 29 28 27 28 30 31 32 32 29 25 21 18 17 18 20 21 22 20 16 13 12 11 10 11 13 14 14 15 16 18 19 19 20 21 21 21 20 20 19 18 17 17 17 18 18 17 16 15 14 13 14 14 13 12 12 12 11 9 8
14 15 15 14 14 15 16 16 18 19 21 23 24 25 27 29 30 31 33 33 33 35 39 40 37 32 29 28 27 26 27 29 31 32 33 31 27 22 18 16 16 17 19 20 19 17 17 16 15 15 16 17 17 16 17 19 19 20 20 20 19 19 18 17 17 17 16 16 18 19 19 18 18 18 17 17 18 17 15 13 12 10 8 7 6
13 14 15 15 14 15 15 15 16 17 19 22 23 24 26 27 28 29 30 30 30 32 37 40 38 34 30 28 28 27 25 26 28 28 29 30 29 27 24 21 18 15 13 11 10 11 13 15 18 19 19 21 23 23 21 19 19 20 20 19 18 18 17 17 18 19 18 18 18 18 17 17 17 17 17 18 17 15 13 12 12 11 9 7 5
13 14 15 16 16 15 15 15 16 16 17 19 21 22 24 25 26 27 28 29 28 29 33 37 38 35 32 29 29 28 25 22 22 24 25 26 27 27 26 24 23 21 17 12 10 10 11 12 14 15 15 17 20 21 19 17 17 19 20 19 18 17 16 15 15 15 15 15 14 13 13 13 14 15 16 16 16 14 12 11 12 14 13 9 7
13 13 14 16 16 16 16 17 17 16 16 16 18 20 22 24 25 26 27 28 27 26 29 34 37 36 34 31 29 28 25 21 18 19 21 23 24 25 24 24 24 23 21 20 21 21 21 21 21 20 18 18 18 17 15 14 14 14 15 15 15 15 13 13 12 11 12 13 13 14 14 14 14 15 14 14 15 13 10 10 12 15 13 10 9
13 12 13 14 15 16 17 18 17 17 17 16 16 17 19 20 22 24 25 27 26 25 26 30 34 36 35 33 31 29 27 23 18 16 17 19 21 22 22 22 22 22 20 21 23 24 23 23 23 23 22 21 20 19 17 16 15 14 13 13 13 13 12 12 12 11 12 13 13 13 13 12 11 12 11 11 13 12 10 11 12 12 11 10 10
15 14 12 12 14 15 17 17 16 17 18 18 17 16 17 18 19 20 22 24 25 25 25 28 32 34 32 31 31 30 29 25 20 16 16 17 17 19 20 21 21 21 19 20 23 23 22 22 22 21 20 20 19 18 17 16 15 14 13 13 13 13 12 12 11 11 11 11 10 10 9 8 8 10 10 11 12 12 10 10 9 8 9 11 12
15 15 13 13 13 14 15 16 16 16 17 17 17 16 17 18 18 18 20 22 22 23 23 25 28 30 29 28 28 29 29 27 21 17 17 18 18 17 17 17 17 19 19 20 21 22 22 22 22 21 20 19 18 17 16 15 15 14 13 13 13 12 12 11 10 10 10 10 10 11 10 9 9 10 11 12 12 11 9 8 8 8 10 12 11
12 12 10 11 12 13 13 15 15 15 16 16 16 16 17 17 17 17 19 20 21 20 20 21 23 27 27 25 24 26 29 29 23 16 16 17 18 17 16 16 16 17 18 19 19 19 19 19 18 19 19 18 17 16 15 14 14 13 13 12 11 10 9 8 8 8 9 11 13 14 13 11 11 10 10 10 10 10 11 11 10 11 12 12 9
12 9 6 8 11 12 12 13 14 14 14 14 15 16 16 16 17 17 17 19 20 19 18 18 20 24 26 24 21 22 26 29 26 18 14 15 17 17 17 18 19 19 19 18 18 18 18 17 16 16 16 16 16 15 14 13 12 11 10 10 10 9 9 9 9 9 11 13 14 13 12 10 10 9 9 10 9 10 11 12 12 12 12 10 7
14 12 8 8 10 11 10 10 12 12 13 14 14 15 15 16 16 17 17 18 19 19 18 17 19 23 25 23 21 20 21 25 26 22 17 16 18 18 17 17 17 17 18 17 16 17 17 17 17 16 15 14 13 12 12 11 11 10 9 9 9 10 11 12 12 11 12 13 13 12 11 11 9 6 6 6 6 7 8 10 10 11 10 8 7
14 14 12 10 11 11 10 9 10 10 11 13 13 13 14 15 16 16 17 17 18 18 17 16 18 23 25 23 21 20 19 21 26 27 23 19 18 17 17 16 16 16 16 15 14 14 15 15 16 16 15 15 14 12 10 10 10 11 10 10 12 13 14 14 14 13 12 12 12 11 11 10 8 7 6 6 7 7 7 6 6 8 8 8 8
9 12 14 11 10 11 9 8 10 11 10 10 12 13 13 14 15 15 16 16 17 18 17 15 17 22 25 23 21 20 20 21 25 28 27 24 20 17 16 16 16 16 16 15 14 13 12 13 13 14 15 16 16 16 15 14 14 14 15 15 16 16 15 13 12 12 11 11 10 10 8 6 5 6 7 7 7 8 9 9 8 7 6 7 8
6 9 12 9 9 10 8 8 11 11 7 8 11 12 12 13 14 14 14 15 16 17 16 15 16 21 23 22 21 21 21 22 23 24 25 25 23 19 16 16 17 16 16 16 15 14 12 12 13 13 13 13 14 16 16 16 17 17 17 16 15 13 11 11 11 10 9 8 8 8 8 8 6 5 5 5 5 6 8 9 8 7 5 5 6
5 8 10 8 8 9 8 7 9 9 7 8 10 10 10 12 13 12 13 13 14 15 15 14 16 18 20 20 20 20 19 20 21 21 22 24 24 21 17 15 15 15 15 15 15 15 14 13 12 12 12 12 12 13 13 13 12 12 11 9 8 7 7 8 9 9 8 8 8 8 8 6 4 4 5 6 7 7 6 6 7 5 5 6 6
6 7 9 8 8 9 9 8 8 10 11 11 9 9 10 11 11 11 12 13 12 13 13 13 14 16 17 18 18 18 18 18 18 18 19 22 23 22 19 15 12 11 12 13 13 12 12 10 9 8 9 9 9 10 10 9 9 8 7 6 6 7 7 6 6 5 5 5 5 6 7 6 5 4 5 6 5 4 4 5 6 4 3 4 6
6 6 7 7 7 8 9 8 8 10 12 11 9 9 10 10 10 10 12 12 12 12 13 12 13 14 15 15 15 15 15 16 15 15 16 18 18 19 21 18 13 9 8 8 9 9 8 8 7 4 4 6 7 7 7 8 8 7 7 7 7 8 8 7 6 6 7 6 5 5 6 7 6 3 2 2 3 3 5 7 6 3 3 4 5
6 5 5 6 7 7 8 8 8 8 9 10 10 10 10 10 10 10 10 11 12 12 12 11 11 12 13 13 13 13 13 13 14 14 14 14 14 16 18 19 16 12 9 5 5 7 8 8 8 5 3 3 5 5 5 5 6 6 5 4 5 5 5 6 6 6 7 8 7 6 5 5 3 2 2 2 3 2 2 4 6 6 4 4 4
5 5 5 6 6 7 7 9 9 8 8 9 11 10 10 11 11 11 10 11 12 12 11 11 12 11 11 11 12 12 12 12 12 13 13 12 13 15 16 15 15 17 15 9 4 5 6 6 7 6 4 3 3 4 4 3 4 4 3 2 3 3 3 5 6 6 5 6 6 6 5 3 2 2 4 5 4 3 2 3 5 7 6 4 3
3 5 5 5 6 6 6 7 8 8 9 9 10 11 11 11 11 12 12 12 13 12 11 11 12 12 11 9 10 11 11 10 10 11 12 13 14 16 17 14 12 15 19 15 7 4 3 4 5 7 6 4 4 5 6 4 2 1 2 3 3 3 4 4 5 5 5 6 6 5 5 4 3 3 5 6 4 2 2 3 4 5 5 4 3
3 4 4 4 5 5 5 6 6 6 7 8 8 9 11 11 11 12 12 11 11 12 12 12 13 13 12 11 11 10 10 10 10 9 10 11 13 16 17 14 9 10 16 18 14 11 8 5 4 6 7 6 4 3 4 3 2 2 2 3 4 5 4 3 3 3 5 7 6 5 4 5 5 5 4 5 6 4 3 3 3 3 4 6 4
2 3 3 4 4 4 5 6 5 5 7 8 7 8 11 11 10 11 11 11 11 12 12 11 13 14 13 12 11 10 8 9 10 9 9 10 12 14 16 14 10 8 12 15 16 16 13 7 4 5 6 6 6 4 2 1 3 4 4 4 3 3 2 2 1 1 3 5 6 7 7 7 7 6 4 4 5 5 4 4 3 1 2 5 7
1 2 3 3 4 4 4 5 6 5 7 8 8 9 10 10 10 10 11 10 10 11 11 10 11 13 13 13 12 10 8 8 8 8 8 9 9 11 14 15 13 10 8 9 13 15 15 12 9 7 5 3 4 5 4 3 5 5 4 4 3 2 2 3 3 3 4 6 6 7 7 6 5 4 3 3 4 5 5 5 6 6 4 4 7
1 3 3 2 3 4 3 4 5 5 6 7 7 7 8 8 8 10 10 9 9 11 12 11 10 11 12 12 11 10 10 9 8 8 7 8 8 8 11 14 14 11 9 8 9 12 13 13 13 11 9 7 6 5 5 6 7 6 5 4 4 4 4 5 6 6 7 7 7 7 7 6 4 3 3 3 3 4 5 5 7 9 7 5 6
2 3 3 3 4 5 4 4 5 5 6 6 5 5 6 6 6 8 10 8 8 10 11 11 10 10 11 10 9 9 7 7 6 7 6 7 8 8 8 10 12 11 11 11 9 8 7 8 8 8 8 8 8 7 7 7 7 6 6 6 6 6 7 7 8 8 9 8 7 6 6 6 5 4 4 4 3 3 3 3 4 6 7 5 4
Wind_Direction
18 5 0 2 360 357 357 354 353 350 342 336 329 324 322 321 323 326 326 323 319 313 308 307 308 306 300 296 293 293 293 283 272 264 257 255 252 246 240 234 230 232 233 230 230 232 233 231 231 229 225 226 230 226 221 221 218 215 214 210 208 213 213 207 208 209 201 198 198 195 199 200 191 191 201 205 200 193 193 197 201 201 199 198 200
22 5 359 3 359 355 356 353 354 356 351 346 340 335 329 319 314 314 314 316 316 314 312 309 309 308 303 299 296 293 290 284 273 264 256 254 252 246 241 236 230 228 230 229 228 229 229 229 228 225 224 225 225 222 221 222 219 217 217 216 213 213 213 209 210 211 200 197 200 197 199 203 196 191 200 207 198 187 189 197 206 206 201 200 204
29 9 1 360 355 358 359 355 358 357 352 353 349 342 342 335 324 316 309 307 309 309 310 309 307 305 303 303 303 297 290 281 271 265 259 254 252 248 243 240 234 229 228 228 228 225 223 224 224 222 224 227 226 225 224 224 225 222 219 221 218 213 213 212 211 209 201 198 198 195 197 202 198 192 199 206 198 192 194 197 205 209 203 200 207
26 13 9 2 358 2 1 2 9 356 343 349 350 343 345 345 341 335 325 318 316 314 310 308 309 309 305 302 300 298 293 280 268 268 268 261 255 254 250 244 239 237 234 231 229 225 221 222 223 222 224 227 228 229 226 223 225 222 218 221 220 215 215 214 209 208 206 199 193 193 197 201 198 192 198 204 201 200 202 201 205 207 203 202 206
18 12 13 7 3 5 2 6 12 355 342 347 349 346 347 347 344 340 334 329 325 322 319 313 313 315 312 301 292 293 293 283 269 265 269 265 260 262 259 249 244 243 242 237 232 229 227 226 226 225 226 227 226 224 222 221 221 219 215 215 216 218 220 215 208 204 202 196 189 193 198 198 195 191 194 202 200 194 198 206 207 199 200 213 212
18 12 11 9 8 8 5 6 5 356 352 353 350 348 350 348 345 341 336 332 325 319 318 314 310 313 315 309 298 291 289 286 278 270 266 263 259 261 260 254 249 247 246 241 237 236 234 231 229 228 227 227 226 224 222 222 223 219 216 216 217 220 226 223 214 201 195 192 190 192 192 191 193 193 193 202 201 185 185 197 204 190 191 208 216
16 13 10 9 11 10 6 6 3 358 356 353 349 350 351 349 349 345 339 334 326 315 313 313 311 313 317 317 309 298 293 293 287 279 272 262 252 252 255 252 249 248 247 244 241 241 239 235 232 230 229 227 229 233 232 231 229 224 222 223 222 222 225 225 219 209 201 198 196 197 195 191 195 198 195 199 200 185 183 191 197 192 192 200 209
17 16 12 10 12 11 7 4 1 359 357 354 354 356 355 354 354 350 343 339 334 324 316 314 313 313 313 316 313 304 300 304 297 286 277 269 254 247 249 247 246 249 250 249 247 244 241 236 231 230 232 232 233 236 236 234 230 225 224 224 221 221 224 220 212 207 204 201 199 201 198 189 192 199 194 191 191 186 188 193 193 192 195 199 205
18 18 14 11 12 11 8 3 1 3 3 1 2 3 2 1 360 356 349 343 339 333 325 316 312 310 308 309 314 312 298 290 291 283 274 268 254 243 242 243 244 248 250 252 251 245 241 238 235 235 238 239 236 233 231 230 228 227 225 222 221 220 216 211 203 196 197 202 200 197 194 188 190 195 190 190 194 192 192 195 193 193 196 199 204
19 19 16 13 12 11 9 7 5 8 8 6 7 10 10 8 8 7 2 353 344 338 333 326 318 314 309 305 308 312 301 280 274 273 267 262 253 241 237 242 247 246 244 247 250 246 241 239 238 240 240 237 233 230 230 229 228 228 225 223 226 222 211 205 199 195 202 209 202 193 192 192 194 194 190 193 198 196 193 194 192 192 196 197 200
20 21 17 14 13 12 12 11 10 11 11 10 12 14 16 16 15 14 14 10 2 351 343 337 330 323 317 311 308 307 303 290 277 270 261 258 258 251 243 244 247 247 241 241 246 245 242 239 237 237 235 230 227 227 229 228 226 228 227 225 227 226 217 207 198 198 207 206 199 195 195 194 194 195 194 195 195 195 197 197 193 192 196 200 199
24 20 17 16 16 14 14 15 16 15 13 13 15 18 20 19 19 19 19 17 15 11 4 356 349 340 328 319 312 305 300 294 288 280 265 256 256 256 251 243 239 243 243 241 245 246 243 240 236 235 234 231 228 226 226 226 225 226 226 225 224 224 220 212 202 201 204 199 196 198 197 194 195 195 195 194 192 193 196 196 195 195 199 203 202
25 21 19 19 18 17 16 19 19 17 15 15 18 21 23 22 22 22 21 19 18 17 14 11 7 1 351 337 323 310 301 294 291 286 274 262 256 254 252 241 230 236 244 245 247 249 246 240 233 232 236 237 235 232 227 224 222 221 223 223 222 219 216 213 208 204 204 201 198 198 198 197 197 196 195 194 191 192 196 197 196 197 199 202 201
26 25 24 23 23 21 20 23 22 18 17 17 17 19 21 24 25 24 22 20 19 18 16 13 12 11 8 0 347 329 314 304 294 288 280 272 264 257 254 246 232 229 237 243 246 247 248 244 235 231 234 238 237 233 227 224 223 222 221 217 215 215 213 212 212 209 209 210 206 202 201 199 197 196 196 196 193 192 199 204 200 199 204 202 195
29 29 27 24 24 23 23 23 22 19 18 17 16 16 16 18 21 24 24 22 21 21 19 16 14 14 12 8 2 351 338 325 310 298 289 282 277 269 264 259 246 233 235 243 246 246 247 244 237 233 237 237 232 225 222 225 226 224 220 214 213 217 216 215 215 213 214 217 215 210 208 205 205 203 199 197 194 192 201 211 205 204 210 206 196
31 30 28 25 24 23 24 23 22 20 19 18 18 17 15 12 12 15 18 19 21 23 23 21 19 17 15 11 8 3 354 346 335 322 308 295 284 275 270 268 260 244 238 241 245 246 243 235 230 233 238 236 228 222 221 223 221 219 219 216 214 218 218 217 218 217 219 221 219 217 216 213 214 214 209 202 196 193 203 209 203 204 209 206 200
32 30 28 26 24 23 24 23 23 22 20 19 17 15 15 14 11 10 9 10 14 18 20 21 21 20 19 16 13 8 2 357 352 346 338 321 303 289 281 276 267 248 237 237 241 245 240 230 228 234 234 227 222 222 223 221 218 217 220 219 217 217 217 218 219 217 218 221 220 218 218 217 218 220 217 208 199 197 204 206 203 206 210 206 201
32 29 28 28 24 23 24 25 25 25 22 21 19 16 14 13 15 14 8 5 6 10 14 18 20 22 22 20 17 13 9 4 359 356 355 348 337 327 311 297 285 259 236 232 239 247 241 228 224 227 221 208 208 221 228 226 222 221 222 222 220 219 219 221 220 217 218 220 219 216 213 212 215 215 209 203 200 200 204 204 202 204 206 204 199
33 30 30 29 26 25 26 25 26 26 24 22 22 22 19 16 15 15 11 9 7 5 9 15 18 20 21 20 19 16 14 10 5 0 360 1 2 1 355 330 301 271 237 228 242 255 244 225 212 206 198 191 197 217 237 236 229 226 226 226 223 219 217 216 214 214 217 215 207 205 203 201 205 206 198 194 195 195 200 203 201 199 203 205 201
34 32 32 31 29 28 28 27 27 27 25 21 19 21 21 20 18 15 13 14 11 8 10 12 15 19 20 18 17 17 17 15 11 7 2 359 4 10 17 45 50 15 253 225 232 229 222 219 209 200 197 196 196 209 236 248 242 231 225 227 226 218 211 208 204 207 212 203 186 186 190 190 192 192 189 188 185 178 182 189 188 182 180 181 185
38 36 34 33 31 30 32 33 31 29 27 22 20 23 24 22 21 19 16 15 14 13 13 11 10 15 19 18 16 16 18 18 15 14 11 4 357 357 2 19 34 29 15 347 319 280 226 234 235 225 214 208 206 207 222 237 235 220 214 220 225 214 206 204 200 200 204 196 176 172 177 178 178 179 180 183 182 171 166 170 173 172 166 164 170
40 39 38 36 34 33 36 38 36 34 32 26 25 30 32 29 28 25 20 17 17 16 16 13 10 11 16 20 19 15 16 19 18 18 20 17 10 4 3 6 7 7 3 348 334 320 256 232 228 223 216 211 208 199 201 210 209 202 201 212 217 207 199 195 191 189 191 189 178 172 172 173 173 172 171 172 175 177 172 168 173 177 172 173 175
41 40 40 39 36 34 35 37 35 34 33 26 25 29 31 31 33 32 26 22 21 20 18 16 14 12 15 21 23 19 16 19 20 21 24 24 23 22 23 22 19 16 10 2 4 15 233 222 210 204 202 196 185 176 183 186 183 184 191 201 200 192 184 180 181 182 182 183 185 184 179 177 177 174 169 165 171 184 185 179 185 188 182 188 191
43 41 40 40 36 33 34 34 33 34 32 25 21 24 27 29 32 33 31 27 24 22 21 19 17 15 14 17 22 23 21 20 22 24 26 27 27 27 28 32 37 42 48 61 81 99 116 143 165 174 176 171 163 164 172 176 176 178 181 182 179 177 175 175 177 179 178 178 179 177 173 177 180 175 172 175 176 172 161 162 178 181 173 182 191
45 42 41 40 35 34 36 30 27 33 36 31 23 23 26 29 30 30 30 28 25 23 21 20 19 18 16 16 19 22 25 25 26 28 30 31 32 30 31 33 37 47 67 84 94 103 114 127 149 163 167 166 164 162 162 167 177 179 174 171 173 176 180 182 181 179 175 169 165 162 159 165 169 163 161 166 164 156 155 163 170 168 169 182 193
45 42 41 40 35 34 35 28 24 29 35 36 30 26 27 30 29 29 28 27 26 23 20 20 19 18 18 19 18 19 24 27 29 31 33 33 34 34 35 37 38 42 51 64 79 97 110 122 138 146 150 160 167 165 158 159 170 175 172 171 173 175 178 179 178 172 163 153 149 147 143 142 144 143 142 144 141 139 149 158 149 141 147 161 168
47 43 41 39 35 33 31 24 22 26 30 31 30 28 28 28 28 27 25 24 25 24 21 19 19 17 17 19 18 18 20 24 27 30 31 31 30 29 31 35 39 43 46 48 54 72 92 107 122 126 128 141 155 160 154 151 154 159 161 160 160 160 160 164 165 161 153 145 141 137 133 130 129 129 132 133 129 126 130 137 138 138 144 147 138
51 47 42 38 36 35 32 23 17 19 23 25 26 26 27 26 26 26 24 21 22 24 23 21 19 18 16 16 18 19 19 20 23 25 27 29 29 28 28 30 34 42 49 51 55 64 75 86 98 105 109 116 124 132 135 132 130 135 141 144 144 143 143 147 150 147 143 142 140 136 134 131 127 125 125 125 125 125 125 130 133 134 143 152 140
51 48 43 39 38 36 34 29 24 19 16 17 20 24 25 24 24 25 24 21 20 22 24 23 21 19 17 16 17 18 19 21 23 23 23 25 28 31 34 34 33 37 41 42 53 65 70 76 84 89 91 96 103 110 116 114 107 106 111 117 121 125 129 132 132 132 135 140 142 140 138 136 135 134 133 131 128 127 127 127 125 127 135 148 147
51 48 44 42 41 36 32 34 34 28 19 14 15 18 20 21 22 23 23 22 19 20 24 24 21 19 19 20 19 18 18 19 21 23 24 26 28 32 36 38 40 44 44 42 46 52 51 57 67 70 71 79 90 99 107 110 105 102 104 106 108 113 117 117 118 123 133 140 144 145 144 143 143 143 145 141 133 128 126 124 128 138 145 150 151
45 44 44 43 41 37 37 39 35 30 26 22 17 16 16 16 17 20 21 20 19 19 22 24 21 18 19 21 20 18 18 19 20 23 25 26 28 30 34 37 42 45 47 51 56 57 56 55 56 54 52 57 64 70 78 85 87 90 96 99 99 99 100 100 99 106 116 120 121 122 123 123 125 127 130 128 121 120 128 135 143 149 148 147 155
44 42 43 43 38 35 37 38 34 30 29 29 24 21 19 16 15 16 17 17 18 18 20 22 20 17 16 18 18 16 16 17 18 23 25 25 26 27 28 32 38 41 43 47 50 51 52 52 51 49 47 47 48 50 55 59 61 65 71 77 80 82 83 85 86 88 92 93 92 94 96 97 101 106 109 112 117 126 142 151 153 156 156 160 168
48 47 47 45 39 36 35 35 34 31 29 28 27 26 24 21 17 16 16 15 16 18 19 19 18 15 14 15 15 14 14 15 17 24 28 25 24 25 25 26 31 34 37 41 43 42 43 44 45 44 43 42 41 41 42 46 50 55 60 64 68 70 70 71 74 76 77 77 77 82 89 94 103 109 114 124 134 140 143 145 146 145 150 158 158
42 44 48 44 38 38 39 35 33 32 30 30 30 28 25 23 21 20 19 17 16 18 19 16 15 14 14 14 13 11 10 11 15 26 35 33 28 24 23 24 27 28 30 34 36 35 33 34 35 35 34 36 37 37 37 39 41 46 52 57 59 60 61 62 64 66 70 77 86 92 99 109 119 125 128 132 138 137 129 128 138 139 135 140 144
30 30 43 45 39 39 39 35 32 32 32 33 32 30 27 25 23 21 20 19 19 18 18 17 16 15 13 13 14 12 7 6 10 26 41 40 33 26 23 24 25 26 28 30 32 30 29 28 29 29 29 30 31 32 34 37 39 42 46 50 53 56 58 60 61 68 82 97 102 102 101 105 112 117 121 126 135 140 137 136 147 153 146 142 145
25 25 53 62 49 41 37 35 34 32 31 32 31 30 27 26 25 22 20 21 21 18 16 18 17 15 14 14 17 16 9 4 6 19 41 48 41 34 29 27 25 25 27 28 27 28 28 30 33 34 34 34 37 43 47 48 50 52 53 55 58 61 64 66 68 80 99 109 111 110 110 111 113 119 130 137 144 154 155 152 154 158 158 157 155
27 42 71 72 54 44 38 34 31 29 30 29 29 29 27 24 24 23 21 22 22 19 17 17 15 14 16 18 21 23 15 4 3 11 30 47 47 39 34 33 30 27 27 28 27 28 31 37 42 43 43 44 48 56 61 58 54 52 51 56 64 71 78 79 79 89 106 111 107 105 103 100 101 112 135 149 154 163 168 170 170 171 171 169 160
31 47 55 53 48 41 33 27 23 22 24 23 22 26 26 22 22 22 20 21 21 19 17 17 16 16 18 20 23 28 24 10 6 10 18 32 43 42 36 35 35 32 28 28 30 30 33 42 50 52 51 52 53 55 53 49 51 56 62 69 74 75 75 72 70 78 92 95 89 89 92 95 100 106 110 115 118 118 122 132 149 165 169 162 152
25 35 34 38 41 34 26 25 23 19 19 19 18 21 22 20 20 20 18 18 20 20 18 17 17 19 21 20 22 28 28 18 11 10 12 18 30 37 34 32 35 37 32 30 32 36 39 45 53 57 57 56 56 56 56 57 63 69 74 78 79 75 71 69 69 73 78 80 82 83 85 93 113 125 124 125 126 123 118 113 116 135 160 165 159
21 21 21 28 37 33 27 25 22 19 16 13 13 15 18 17 16 15 13 13 16 19 20 16 14 17 22 24 25 30 30 22 15 13 11 12 17 26 32 31 32 34 34 32 31 33 39 46 52 56 59 59 58 57 58 57 58 61 64 69 73 73 75 80 82 80 79 85 92 92 88 87 94 109 118 118 119 131 138 138 136 139 142 140 149
15 16 21 24 28 30 28 22 21 21 15 7 7 11 14 12 8 7 9 13 16 18 19 15 11 13 22 27 28 29 30 25 19 16 13 10 12 19 27 32 33 34 35 36 33 32 39 47 51 54 61 64 62 59 56 51 49 54 65 74 76 77 89 100 101 102 107 110 107 102 101 101 105 115 112 91 78 80 90 98 105 110 103 105 125
8 20 26 21 16 20 21 16 15 15 11 10 12 13 10 7 5 4 9 13 15 15 16 14 11 11 17 22 24 25 26 25 24 21 16 12 11 11 12 20 35 42 39 39 37 34 34 36 38 48 61 64 62 66 71 68 62 61 68 69 55 48 61 79 84 91 110 125 128 121 111 100 88 91 97 89 78 80 95 101 98 83 77 111 125
26 24 19 15 17 18 14 11 13 13 9 10 12 7 4 6 8 7 9 11 8 6 9 11 11 10 10 13 16 20 21 20 20 20 19 17 13 6 2 5 17 37 49 50 44 36 27 19 15 28 63 67 67 80 92 92 84 77 75 73 65 60 67 75 72 65 74 92 120 135 117 99 87 77 83 113 132 139 143 144 139 111 75 107 123
21 22 22 22 25 22 15 15 20 19 14 15 15 10 10 15 13 6 4 6 3 2 3 2 1 5 8 6 7 13 17 16 13 15 18 17 11 6 2 359 0 12 28 42 43 40 36 28 25 35 73 86 81 88 94 88 82 82 89 108 119 118 118 121 115 102 93 92 100 112 111 103 103 109 111 124 133 129 136 161 167 156 129 113 130
22 30 29 19 20 25 21 19 23 24 19 18 20 18 15 14 9 3 4 5 4 6 6 357 350 355 5 5 2 6 13 13 12 13 14 7 360 3 6 360 356 5 14 23 53 70 53 23 14 28 52 74 86 94 93 75 69 81 103 153 170 170 176 173 159 145 133 123 123 135 147 163 198 178 146 134 124 111 124 167 177 169 152 131 148
27 29 23 17 21 25 19 15 23 29 25 19 19 21 18 14 8 7 8 8 4 6 11 5 356 356 3 3 1 5 10 12 12 14 12 360 350 355 7 11 358 356 6 14 26 41 23 354 356 17 35 52 74 85 78 56 20 253 224 238 257 278 277 248 221 203 184 169 163 166 176 194 227 225 192 183 184 180 173 193 207 201 182 173 194
22 18 13 12 13 12 11 9 14 23 20 11 9 15 17 14 10 8 8 7 5 6 10 10 5 4 5 5 6 8 11 13 16 19 15 2 349 351 4 16 8 347 356 8 13 8 2 2 11 22 30 38 49 79 86 65 343 292 285 286 283 292 311 314 284 249 217 203 208 229 234 229 245 263 239 202 197 189 170 178 220 244 215 192 190
360 2 1 5 4 3 6 3 355 3 11 8 7 14 15 11 9 7 6 7 10 10 9 9 8 7 8 8 8 7 8 12 16 21 21 13 359 350 353 7 22 13 356 357 4 7 8 15 29 27 27 26 18 21 54 12 318 325 342 342 318 306 332 356 351 280 241 233 244 263 266 254 254 265 266 228 208 203 182 156 150 150 197 193 187
324 351 337 344 350 347 351 351 346 352 3 3 4 12 11 6 6 5 1 4 11 9 3 3 7 7 8 10 7 2 3 10 14 19 22 18 7 350 342 352 14 29 11 346 352 3 11 20 30 28 22 19 13 12 10 354 347 352 2 4 359 3 357 336 315 302 291 283 281 282 280 273 263 254 245 220 208 214 221 208 190 176 163 180 189
306 346 319 305 335 339 337 337 335 343 354 357 357 360 359 0 7 3 354 358 14 12 4 3 4 1 4 9 6 1 6 10 7 10 18 13 4 357 346 343 354 14 21 8 360 360 2 10 19 18 12 14 20 16 9 8 8 8 9 2 353 344 331 320 312 307 302 299 296 291 285 282 274 240 223 219 211 211 222 228 215 201 187 177 184
299 342 310 285 314 328 327 320 320 335 350 353 350 351 348 352 4 358 346 350 10 11 3 4 3 355 357 5 1 355 4 9 357 357 9 3 354 357 350 338 344 6 19 14 10 9 2 1 7 4 354 356 6 12 13 12 6 356 350 347 341 332 327 323 318 315 313 308 304 298 286 276 265 232 210 221 250 255 253 260 238 207 186 169 171